"Pseudo-MPEC" for ZKA875D

Created 2018 May 19 19:18:16 UT using Find_Orb

Click here for an explanation of pseudo-MPECs

 
 Astrometry: 
     ZKA875D  C2018 05 17.27230 13 51 25.84 +03 23 14.9          20.4 GUNEOCPG96
     ZKA875D  C2018 05 17.27756 13 51 33.43 +03 21 09.6          20.5 GUNEOCPG96
     ZKA875D  C2018 05 17.28279 13 51 41.07 +03 19 04.8          20.2 GUNEOCPG96
     ZKA875D  C2018 05 17.28802 13 51 48.64 +03 17 00.5          20.2 GUNEOCPG96
     ZKA875D  C2018 05 17+DAstrometryFXR(FE%fZAqDj#!4NjKHn5pqIdGUdk!vw)wvbcV]H01
     ZKA875D  C2018 05 174M7(L)LQ+@f!kie9D)^6]#2F@i]TC1kxmq'tH2:hh`X-SV7kV=':H01
     ZKA875D  C2018 05 17t:::]Qn_X01_*YLx:^ZGk6^]GUd;OX/C;`7v#QT3bnqu@oQ4.1[yH01
     ZKA875D  C2018 05 17t\I)!3YMVO3H%6y3#redacted;;'tj!DB5R-K+/EB2NCPaV#r+k@H01
     ZKA875D  C2018 05 17.34454 13 53 10.69 +02 54 40.3          20.3 GUNEOCPI52
     ZKA875D  C2018 05 17.34738 13 53 14.82 +02 53 33.3          20.4 GUNEOCPI52
     ZKA875D  C2018 05 17.34946 13 53 17.86 +02 52 44.3          20.5 GUNEOCPI52
     ZKA875D  C2018 05 17.35055 13 53 19.42 +02 52 18.1          20.2 GUNEOCPI52
     ZKA875D KC2018 05 170'?x_4%YX[Wp/bA;K@]^oZh06F(B7H,rA^W/dkBEHvoX^kM01dHDL01
     ZKA875D KC2018 05 176k4\M0sPqlKUI5?nW=ShO8YHj@pK`pRCCcpsZby5f4/Zk'QDo6((L01
     ZKA875D pC2018 05 178sbx@Inslk\?%+ER:Ywv1uk72NtJGv3ysee=6G6\8LxWBWOM'B6XL01
     ZKA875D KC2018 05 17.91954314 07 14.65 -00 43 33.5                VNEOCPJ95
     ZKA875D KC2018 05 17.92880414 07 26.95 -00 46 53.8          20.3 GVNEOCPJ95
     ZKA875D  C2018 05 17.94618 14 07 47.99 -00 53 10.5          20.1 VSNEOCP033
     ZKA875D  C2018 05 17.94787 14 07 50.25 -00 53 47.1          20.6 VSNEOCP033
     ZKA875D  C2018 05 17.94957 14 07 52.50 -00 54 23.8          20.5 VSNEOCP033
     ZKA875D  C2018 05 17.95127 14 07 54.76 -00 55 00.4          20.5 VSNEOCP033
     ZKA875D  C2018 05 18.22411 14 14 08.80 -02 30 21.9          19.9 GUNEOCPI52
     ZKA875D  C2018 05 18.22507 14 14 09.99 -02 30 41.5          19.9 GUNEOCPI52
     ZKA875D  C2018 05 18.22603 14 14 11.21 -02 31 02.1          20.4 GUNEOCPI52
     ZKA875D  C2018 05 18.22700 14 14 12.42 -02 31 21.3          19.8 GUNEOCPI52
     ZKA875D  C2018 05 19.22573 14 34 39.62 -07 46 44.2          19.5 GUNEOCPI52
     ZKA875D  C2018 05 19.22670 14 34 40.57 -07 47 01.0          19.7 GUNEOCPI52
     ZKA875D  C2018 05 19.22766 14 34 41.58 -07 47 17.4          19.9 GUNEOCPI52
     ZKA875D KC2018 05 19GTc8f72j8cW7Zm^JOQvN.r+8EbsAxR_y,#7L:$SgNDGA]KK4GSvs474
     ZKA875D KC2018 05 1984.:R`SQFVCrqGh$hHi8_:cs;p4T^,/lFa,TmR06$[7m9YcH!!uW474
     ZKA875D KC2018 05 194EEi)QRvRm(,:5p*9RA`EJa%cD8OX]t!fL-X!ydo4ZMfu42NEOCP474

Station data:
(033) Karl Schwarzschild Observatory, Tautenburg  (N50.980140 E11.711240)
   Germany. 1.3-m Schmidt.
(474) Mount John Observatory, Lake Tekapo  (S43.987388 E170.464960)  New
   Zealand.  Observers A. C. Gilmore, P. M. Kilmartin. Measurer P. M.
   Kilmartin. 1.0-m f/7.7 reflector + CCD.
(G96) Mt. Lemmon Survey  (N32.442754 W110.788720)  US/Arizona.  Observers E.
   J. Christensen, A. R. Gibbs, A. D. Grauer, R. E. Hill, J. A. Johnson, R.
   A. Kowalski, S. M. Larson, F. C. Shelly. 1.5-m reflector + CCD.
(H01) Magdalena Ridge Observatory, Socorro  (N33.985151 W107.189200)  US/New
   Mexico.  Observers W. H. Ryan, E. V. Ryan. Measurer W. H. Ryan. 2.4-m
   f/8.9 reflector + CCD.
(I52) Steward Observatory, Mt. Lemmon Station  (N32.442547 W110.788920)
   US/Arizona.
(J95) Great Shefford  (N51.474970 W1.447000)  UK.  Observer P. Birtwhistle.
   0.40-m f/6.0 Schmidt-Cassegrain + CCD.
(L01) Višnjan Observatory, Tičan  (N45.290900 E13.749300)  Croatia.

Orbital elements:  ZKA875D
   Perihelion 2018 Apr 15.625798 +/- 0.0191 TT = 15:01:09 (JD 2458224.125798)
Epoch 2018 May 19.0 TT = JDT 2458257.5   Earth MOID: 0.0204   Ma: 0.0512
M   8.92797 +/- 0.06                (J2000 ecliptic)          AutoNEOCP
n   0.26751127 +/- 0.00184          Peri.  134.77020 +/- 0.0038
a   2.38547380 +/- 0.0109           Node    60.29658 +/- 0.0010
e   0.6008848 +/- 0.00187           Incl.    5.50312 +/- 0.012
P   3.68                   H 26.1   G  0.15   U  8.5  
q 0.95207864 +/- 0.000103    Q 3.81886896 +/- 0.022
From 31 observations 2018 May 17-19; mean residual 0".48
Residuals in arcseconds: 
180517 G96  .06+  .03-    180517 I52  .30-  .42-    180518 I52  .54-  .30-    
180517 G96  .66-  .01-    180517 L01  .15-  .39-    180518 I52  .27-  1.0-    
180517 G96  .04+  .29-    180517 L01  .69-  .03-    180518 I52  .34-  .18-    
180517 G96  .28-  .13-    180517 L01  1.9-  .24-    180519 I52  .86+  .41-    
180517 H01  .19-  .36-    180517 J95  .67+  .08+    180519 I52  .39-  .46-    
180517 H01  .13-  .22-    180517 J95  .04+  .84+    180519 I52  .58-  .29-    
180517 H01  .09-  .37-    180517 033  .22+  .70-    180519 474  .56+  .09+    
180517 H01  .25-  .48-    180517 033  .42+  .75-    180519 474  .34-  .00     
180517 I52  .21-  .19-    180517 033  .27+  .70-    180519 474  .80-  .09-    
180517 I52  .17-  .09-    180517 033  .27+  .55-    
180517 I52  .07+  .04+    180518 I52  .36-  .56-    

Ephemerides (geocentric):
Date (UTC) HH   RA              Dec         delta   r     elong  mag " sig PA
---- -- -- --  ------------   ------------  ------ ------ -----  --- ---- ---
2018 05 19 19  14 44 51.196   -10 18 35.70  .04752 1.0572 162.7 20.5  .32 149
2018 05 19 20  14 45 34.253   -10 29 15.73  .04770 1.0575 162.9 20.5  .35 149
2018 05 19 21  14 46 17.026   -10 39 50.45  .04789 1.0577 163.1 20.5  .38 149
2018 05 19 22  14 46 59.519   -10 50 19.87  .04808 1.0579 163.3 20.5  .41 149
2018 05 19 23  14 47 41.732   -11 00 44.04  .04827 1.0582 163.5 20.5  .44 148
2018 05 20 00  14 48 23.669   -11 11 03.00  .04846 1.0584 163.7 20.5  .48 148
2018 05 20 01  14 49 05.329   -11 21 16.77  .04865 1.0587 163.9 20.5  .51 148
2018 05 20 02  14 49 46.716   -11 31 25.40  .04884 1.0589 164.1 20.5  .54 148
2018 05 20 03  14 50 27.832   -11 41 28.92  .04904 1.0591 164.3 20.5  .58 148
2018 05 20 04  14 51 08.678   -11 51 27.37  .04923 1.0594 164.5 20.5  .61 147
2018 05 20 05  14 51 49.256   -12 01 20.78  .04943 1.0596 164.6 20.5  .64 147
2018 05 20 06  14 52 29.568   -12 11 09.20  .04962 1.0598 164.8 20.5  .68 147
2018 05 20 07  14 53 09.617   -12 20 52.65  .04982 1.0601 165.0 20.5  .71 147
2018 05 20 08  14 53 49.403   -12 30 31.18  .05002 1.0603 165.2 20.5  .75 147
2018 05 20 09  14 54 28.929   -12 40 04.82  .05022 1.0606 165.4 20.5  .78 147
2018 05 20 10  14 55 08.196   -12 49 33.61  .05042 1.0608 165.6 20.5  .82 146
2018 05 20 11  14 55 47.207   -12 58 57.58  .05062 1.0610 165.7 20.5  .85 146
2018 05 20 12  14 56 25.963   -13 08 16.79  .05082 1.0613 165.9 20.5  .89 146
2018 05 20 13  14 57 04.467   -13 17 31.25  .05102 1.0615 166.1 20.5  .92 146
2018 05 20 14  14 57 42.719   -13 26 41.02  .05122 1.0618 166.3 20.5  .96 146
2018 05 20 15  14 58 20.722   -13 35 46.13  .05143 1.0620 166.4 20.5  1.0 146
2018 05 20 16  14 58 58.478   -13 44 46.61  .05163 1.0622 166.6 20.5  1.0 146
2018 05 20 17  14 59 35.989   -13 53 42.51  .05183 1.0625 166.8 20.6  1.1 145
2018 05 20 18  15 00 13.255   -14 02 33.86  .05204 1.0627 166.9 20.6  1.1 145
2018 05 20 19  15 00 50.280   -14 11 20.70  .05225 1.0630 167.1 20.6  1.1 145
2018 05 20 20  15 01 27.064   -14 20 03.06  .05245 1.0632 167.3 20.6  1.2 145
2018 05 20 21  15 02 03.611   -14 28 40.99  .05266 1.0635 167.4 20.6  1.2 145
2018 05 20 22  15 02 39.920   -14 37 14.53  .05287 1.0637 167.6 20.6  1.3 145
2018 05 20 23  15 03 15.995   -14 45 43.70  .05308 1.0639 167.7 20.6  1.3 145
2018 05 21 00  15 03 51.836   -14 54 08.55  .05329 1.0642 167.9 20.6  1.3 144
2018 05 21 01  15 04 27.446   -15 02 29.12  .05350 1.0644 168.0 20.6  1.4 144
2018 05 21 02  15 05 02.826   -15 10 45.44  .05371 1.0647 168.2 20.6  1.4 144
2018 05 21 03  15 05 37.979   -15 18 57.54  .05392 1.0649 168.3 20.6  1.4 144
2018 05 21 04  15 06 12.905   -15 27 05.48  .05414 1.0651 168.5 20.6  1.5 144
2018 05 21 05  15 06 47.606   -15 35 09.27  .05435 1.0654 168.6 20.6  1.5 144
2018 05 21 06  15 07 22.085   -15 43 08.97  .05456 1.0656 168.8 20.6  1.5 144
2018 05 21 07  15 07 56.343   -15 51 04.60  .05478 1.0659 168.9 20.6  1.6 144
2018 05 21 08  15 08 30.381   -15 58 56.20  .05499 1.0661 169.0 20.6  1.6 143
2018 05 21 09  15 09 04.201   -16 06 43.81  .05521 1.0664 169.2 20.6  1.7 143
2018 05 21 10  15 09 37.805   -16 14 27.46  .05543 1.0666 169.3 20.6  1.7 143
2018 05 21 11  15 10 11.194   -16 22 07.19  .05564 1.0669 169.4 20.6  1.7 143
2018 05 21 12  15 10 44.370   -16 29 43.04  .05586 1.0671 169.6 20.6  1.8 143
2018 05 21 13  15 11 17.335   -16 37 15.04  .05608 1.0673 169.7 20.6  1.8 143
2018 05 21 14  15 11 50.090   -16 44 43.23  .05630 1.0676 169.8 20.6  1.8 143
2018 05 21 15  15 12 22.638   -16 52 07.63  .05652 1.0678 170.0 20.6  1.9 143
2018 05 21 16  15 12 54.978   -16 59 28.30  .05674 1.0681 170.1 20.6  1.9 143
2018 05 21 17  15 13 27.113   -17 06 45.25  .05696 1.0683 170.2 20.6  2.0 142
2018 05 21 18  15 13 59.046   -17 13 58.53  .05718 1.0686 170.3 20.6  2.0 142